Showing default

ERS 6, 608

Orbit data source: Space-Track

ERS 6, 608 is a payload satellite owned by USAF SSD (US) in LEO that was launched on Thu, 09 May 1963 UTC via an ATLAS AGENA B launch vehicle from the Air Force Western Test Range (AFWTR). Payload-class satellites include a variety of spacecraft equipped with specific instruments for various scientific and technological missions. These include communications satellites like Starlink; space stations such as the ISS; scientific satellites like the Hubble; Earth observation satellites from companies like Planet Labs, Umbra, and HawkEye 360; GPS; miniature CubeSats for education and research; and military/defense satellites.

Loading next visibility...
Identifier
608, 1963-014C
Orbit
LEO
Country
Flag of USUS
Related business
Manufacturer
TRW
Mission
Spacecraft
Bus & Motor
TRS, Unknown motor
Mass
1 kg wet, 1 kg dry
Launch date (UTC)
1963-05-09 (63 years ago)
Launch vehicle
ATLAS AGENA B
Launch site
Air Force Western Test Range (AFWTR)
Object type
Payload
Rocket body
Debris
Shape & HBR
TETRAHEDRON, 1.1 m
Radar Cross Section
Medium (>0.1 m² and <1 m²)

Expand to show TLE details & history
Last TLE update: 19 hours ago

TLE from 19 hours ago
0 ERS 6
1 00608U 63014C   26255.16170092  .00000008  00000-0  25710-2 0  9999
2 00608  87.3628 185.1842 0012148 266.4567  93.4898  8.65282632   992
Epoch: 2026-09-12T03:52Z
TLE epoch observation values (Epoch: 2026-09-12T03:52:50.959Z)
Latitude
-0.00002°
Longitude
135.7972°
Altitude
3,647.008 km
Speed
6.306 km/s
True Right ascension
12h 20m 44s
True Declination
0° 00' 00"
Sunlit
Object was in daylight at epoch
Visualization orbit readout
Latitude
Unknown
Longitude
Unknown
Altitude
Unknown
Speed
Unknown
Apparent Right ascension
Unknown
Apparent Declination
Unknown
Sunlit
N/A
Visualization observer readout
Local Sidereal Time
15:41:05
Azimuth
Unknown
Elevation
Unknown
Doppler factor
Unknown
Orbital elements
Apogee altitude
3,654.061 km
Perigee altitude
3,629.717 km
Semi-major axis
10,020.026 km
Eccentricity
0.00121
Inclination
87.3628°
RAAN
185.1842°
Arg. of periapsis
266.4567°
True anomaly
93.62873°
Mean anomaly
93.4898°
Eccentric anomaly
93.55927°
Mean motion
2.16391 °/min
Orbital period
166.37 mins
BSTAR
0.002571
Loading maneuver chart data...
Computing Atmospheric mass density...

Documentation

Showing up to 5 results
|